Starlink 35714

operational
NORAD ID: 66215 Int'l Des: 2025-244 Owner: SPXS Country: US Constellation: starlink
NOTLE

关于 Starlink 35714

正在加载描述...

实时位置

正在加载3D地球...

即将过境

高度历史

Altitude vs Time

uPlot chart will show altitude changes over time

两行轨道根数

1 66215C 25244J 25301.73798611 .03635100 00000+0 49993-2 0 3010
2 66215 53.1568 134.0916 0011182 274.6435 325.1891 16.01821046 17
Epoch: Oct 28, 2025 • Age: 80 hours

当前状态

高度 199.1 km
速度 7.79 km/s
星下点 -47.78°S, 166.78°W
发射日期 Oct 28, 2025
运行时间 3 days
类型 internet

技术详情

分类 Payload
质量 575.00 kg
干质量 530.00 kg
总质量 575.00 kg
长度 0.30 m
直径 4.10 m
跨度 29.00 m
形状 Box + pan
制造商 SPXS
平台类型 Starlink V2MO
阶段状态 In Orbit
所有者/国家 SPXS/US

大型星座

Loading constellations...